Regional Weather Roundup
Issued by NWS

Home | Current Version | Previous Version | Text Only | Print | Product List | Glossary Off
Versions: 1 2 3 4 5 6 7 8 9 10 11 12 13 14 15 16 17 18 19 20 21 22 23 24 25 26 27 28 29 30 31 32 33 34 35 36 37 38 39 40 41 42 43 44 45 46 47 48 49 50

000
ASUS43 KTOP 301159
RWRKS

WEATHER ROUNDUP FOR KANSAS
NATIONAL WEATHER SERVICE GOODLAND KS
700 AM CDT WED JUL 30 2014

NOTE:  "FAIR" INDICATES FEW OR NO CLOUDS BELOW 12,000 FEET WITH NO
SIGNIFICANT WEATHER AND/OR OBSTRUCTIONS TO VISIBILITY.

KSZ001>006-013>018-027>032-041>047-301300-
NORTHWEST KANSAS

CITY           SKY/WX    TMP DP  RH WIND       PRES   REMARKS
GOODLAND       LGT RAIN  60  58  92 NE10      30.20R
6HR MIN TEMP:  60; 6HR MAX TEMP:  64; 6HR PCP:  0.08;

HAYS           CLOUDY    66  55  68 E15       30.11S
HILL CITY      CLOUDY    66  58  75 E10       30.15R
6HR MIN TEMP:  66; 6HR MAX TEMP:  72;

RUSSELL        CLOUDY    67  58  72 E10       30.10R
6HR MIN TEMP:  67; 6HR MAX TEMP:  71;

$$

KSZ061>065-074>080-084>089-301300-
SOUTHWEST KANSAS

CITY           SKY/WX    TMP DP  RH WIND       PRES   REMARKS
DODGE CITY     RAIN      64  63  96 E9        30.08R FOG
6HR MIN TEMP:  64; 6HR MAX TEMP:  69; 6HR PCP:  0.80;

ELKHART          N/A     65  58  78 NW15        N/A
GARDEN CITY    RAIN      64  63  96 E12       30.07R FOG
6HR MIN TEMP:  64; 6HR MAX TEMP:  67; 6HR PCP:  1.25;

GREAT BEND     CLOUDY    66  57  72 E10       30.08F
LIBERAL        CLOUDY    66  61  82 S8        30.04S
PRATT          LGT RAIN  64  64 100 CALM      30.09S
$$

KSZ066>073-081>083-090>101-301300-
SOUTHEAST KANSAS

CITY           SKY/WX    TMP DP  RH WIND       PRES   REMARKS
CHANUTE        CLOUDY    69  63  81 E5        30.09R
6HR MIN TEMP:  66; 6HR MAX TEMP:  69; 6HR PCP: TRACE;

COFFEYVILLE    CLOUDY    69  64  84 E7        30.06S
6HR MIN TEMP:  67; 6HR MAX TEMP:  70; 6HR PCP: TRACE;

HUTCHINSON     CLOUDY    67  58  72 NE8       30.09R
6HR MIN TEMP:  66; 6HR MAX TEMP:  71;

NEWTON         CLOUDY    66  55  68 NE6       30.12S
PARSONS        CLOUDY    70  62  76 NE3       30.09R
6HR MIN TEMP:  66; 6HR MAX TEMP:  70;

WICHITA INTL   CLOUDY    69  61  75 E3        30.07R
6HR MIN TEMP:  68; 6HR MAX TEMP:  72;

WICHITA JABRA  CLOUDY    66  61  84 N7        30.08R
6HR MIN TEMP:  65; 6HR MAX TEMP:  70;

WINFIELD       CLOUDY    70  64  81 CALM      30.08R
6HR MIN TEMP:  69; 6HR MAX TEMP:  73;

$$

KSZ007>012-019>026-033>040-048>060-102>105-301300-
NORTHEAST KANSAS

CITY           SKY/WX    TMP DP  RH WIND       PRES   REMARKS
CONCORDIA      CLOUDY    63  62  97 CALM      30.14R
6HR MIN TEMP:  63; 6HR MAX TEMP:  69; 6HR PCP:  0.17;

EMPORIA        CLOUDY    65  62  90 NE12      30.10R
6HR MIN TEMP:  65; 6HR MAX TEMP:  68; 6HR PCP: TRACE;

LAWRENCE       CLOUDY    68  60  75 N5        30.10S
6HR MIN TEMP:  67; 6HR MAX TEMP:  70;

MANHATTAN      LGT RAIN  66  64  93 NE3       30.12R FOG
6HR MIN TEMP:  65; 6HR MAX TEMP:  73; 6HR PCP:  0.40;

OLATHE IND     CLOUDY    67  61  81 N5        30.11R
6HR MIN TEMP:  67; 6HR MAX TEMP:  72;

OLATHE EXE     CLOUDY    68  61  78 N5        30.09S
6HR MIN TEMP:  68; 6HR MAX TEMP:  71;

SALINA         CLOUDY    69  56  62 NE13      30.11R
6HR MIN TEMP:  69; 6HR MAX TEMP:  74;

TOPEKA BILLARD CLOUDY    68  62  81 CALM      30.11R
6HR MIN TEMP:  67; 6HR MAX TEMP:  72;

TOPEKA FORBES  CLOUDY    68  61  78 CALM      30.11R
6HR MIN TEMP:  67; 6HR MAX TEMP:  71;

$$



USA.gov is the U.S. government's official web portal to all federal, state and local government web resources and services.